This is the latest recevied weather packets stored in our database for station/object N3LF. If no packets are shown the sender has not sent any weather packets the latest 10 day(s).
| Time | Temp. | Humidity | Pressure | Rain* | Wind** | Luminosity | Snow |
|---|---|---|---|---|---|---|---|
| 1788295279 | 38.33° C | 45% | 1019.8 hPa | 0 mm | - | 460 W/m² | - |
| 1788294979 | 36.67° C | 49% | 1019.9 hPa | 0 mm | - | 454 W/m² | - |
| 1788294674 | 35.56° C | 50% | 1020 hPa | 0 mm | - | 472 W/m² | - |
| 1788294374 | 35.56° C | 50% | 1020.2 hPa | 0 mm | - | 498 W/m² | - |
| 1788294070 | 36.11° C | 51% | 1019.9 hPa | 0 mm | - | 510 W/m² | - |
| 1788293766 | 37.22° C | 49% | 1020.1 hPa | 0 mm | - | 527 W/m² | - |
| 1788293465 | 37.22° C | 49% | 1020.1 hPa | 0 mm | - | 532 W/m² | - |
| 1788293164 | 36.67° C | 48% | 1020.2 hPa | 0 mm | - | 533 W/m² | - |
| 1788292859 | 37.22° C | 50% | 1020.2 hPa | 0 mm | - | 545 W/m² | - |
| 1788292557 | 36.11° C | 49% | 1020.2 hPa | 0 mm | - | 574 W/m² | - |
| 1788292257 | 36.11° C | 50% | 1020.3 hPa | 0 mm | - | 583 W/m² | - |
| 1788291952 | 36.11° C | 51% | 1020.3 hPa | 0 mm | - | 583 W/m² | - |
| 1788291648 | 37.22° C | 49% | 1020.4 hPa | 0 mm | - | 580 W/m² | - |
| 1788291348 | 37.22° C | 48% | 1020.4 hPa | 0 mm | - | 586 W/m² | - |
| 1788291043 | 35.56° C | 51% | 1020.6 hPa | 0 mm | - | 613 W/m² | - |
| 1788290738 | 36.67° C | 49% | 1020.6 hPa | 0 mm | - | 629 W/m² | - |
| 1788290434 | 36.67° C | 51% | 1020.8 hPa | 0 mm | - | 640 W/m² | - |
| 1788290130 | 37.22° C | 49% | 1020.8 hPa | 0 mm | - | 658 W/m² | - |
| 1788289825 | 37.22° C | 49% | 1020.8 hPa | 0 mm | - | 666 W/m² | - |
| 1788289521 | 36.67° C | 50% | 1020.7 hPa | 0 mm | - | 651 W/m² | - |
| 1788289220 | 37.22° C | 49% | 1020.8 hPa | 0 mm | - | 676 W/m² | - |
| 1788288919 | 36.11° C | 52% | 1020.9 hPa | 0 mm | - | 673 W/m² | - |
| 1788288618 | 36.67° C | 49% | 1021 hPa | 0 mm | - | 674 W/m² | - |
| 1788288314 | 35.56° C | 52% | 1021.1 hPa | 0 mm | - | 667 W/m² | - |
| 1788288009 | 35.56° C | 55% | 1021.1 hPa | 0 mm | - | 619 W/m² | - |
* Rain latest hour (hover to see other rain measurements)
** Current wind speed in m/s (hover to see current wind gust speed)